KT4FD Weather Reports


time (UTC)temp
F
wind
direction
speed
knots
gust
knots
rain 1hr
in
rain 24hr
in
rain mn
in
humidity
%
barometer
mb
20260506012003 62 172 0.0 0.0 0.00 0.00 0.00 70 1015.7
20260506011004 63 172 0.0 0.0 0.00 0.00 0.00 67 1015.7
20260506010003 64 172 0.0 0.0 0.00 0.00 0.00 65 1015.6
20260506005003 65 172 0.0 1.7 0.00 0.00 0.00 63 1015.6
20260506004003 66 172 0.0 0.0 0.00 0.00 0.00 62 1015.7
20260506003003 67 172 0.0 0.0 0.00 0.00 0.00 61 1015.8
20260506002004 67 172 0.0 1.7 0.00 0.00 0.00 59 1015.6
20260506001004 68 172 0.0 0.0 0.00 0.00 0.00 57 1015.5
20260506000004 69 172 0.0 0.9 0.00 0.00 0.00 56 1015.6
20260505235003 70 176 0.0 0.0 0.00 0.00 0.00 57 1015.6
20260505234003 70 223 0.0 0.0 0.00 0.00 0.00 56 1015.5
20260505233003 71 292 0.0 0.9 0.00 0.00 0.00 53 1015.4
20260505232003 71 270 0.0 0.9 0.00 0.00 0.00 52 1015.7
20260505231003 72 270 0.9 2.6 0.00 0.00 0.00 51 1015.8
20260505230003 72 271 0.0 1.7 0.00 0.00 0.00 51 1015.7
20260505225003 72 271 0.9 2.6 0.00 0.00 0.00 48 1015.7
20260505214003 75 162 2.6 10.4 0.00 0.00 0.00 46 1015.7
20260505213003 76 188 2.6 6.1 0.00 0.00 0.00 45 1015.7
20260505212003 76 187 4.3 8.7 0.00 0.00 0.00 44 1015.6
20260505211003 75 202 4.3 8.7 0.00 0.00 0.00 44 1015.8
20260505210003 75 202 4.3 14.8 0.00 0.00 0.00 41 1016.0
20260505205003 76 187 5.2 13.0 0.00 0.00 0.00 42 1015.7
20260505204003 77 220 5.2 11.3 0.00 0.00 0.00 43 1015.8
20260505203003 77 210 4.3 11.3 0.00 0.00 0.00 45 1015.7
20260505202003 77 192 4.3 8.7 0.00 0.00 0.00 45 1015.9
20260505201003 76 198 5.2 13.0 0.00 0.00 0.00 44 1016.1
20260505200004 77 180 6.1 10.4 0.00 0.00 0.00 42 1016.1
20260505195003 77 205 5.2 13.0 0.00 0.00 0.00 43 1016.2
20260505183003 74 189 2.6 13.0 0.00 0.00 0.00 46 1017.0
20260505182003 74 223 5.2 11.3 0.00 0.00 0.00 46 1017.3
20260505181004 74 225 7.0 13.0 0.00 0.00 0.00 47 1017.4
20260505180003 73 217 5.2 13.0 0.00 0.00 0.00 50 1017.5
20260505175003 73 214 6.1 13.0 0.00 0.00 0.00 51 1017.8
20260505174003 73 214 5.2 10.4 0.00 0.00 0.00 51 1018.0
20260505163003 71 223 6.1 13.0 0.00 0.00 0.00 49 1018.3
20260505162003 71 214 7.0 17.4 0.00 0.00 0.00 50 1018.4
20260505161004 70 205 6.1 12.2 0.00 0.00 0.00 51 1018.3
20260505125003 55 196 0.0 0.0 0.00 0.00 0.00 84 1018.0
20260505124004 54 198 0.0 0.0 0.00 0.00 0.00 86 1018.0
20260505123003 52 199 0.0 0.9 0.00 0.00 0.00 86 1018.1
20260505091004 48 248 0.0 0.0 0.00 0.00 0.00 86 1017.4
20260505090003 47 248 0.0 0.9 0.00 0.00 0.00 86 1017.4
20260505085003 47 248 0.0 0.0 0.00 0.00 0.00 86 1017.4
20260505084003 47 248 0.0 0.9 0.00 0.00 0.00 86 1017.5
20260505083004 47 248 0.0 0.9 0.00 0.00 0.00 86 1017.5
20260505082003 48 248 0.0 0.9 0.00 0.00 0.00 86 1017.5
20260505081004 48 248 0.0 0.9 0.00 0.00 0.00 86 1017.5
20260505080003 48 248 0.0 1.7 0.00 0.00 0.00 86 1017.3
20260505075003 48 249 0.9 1.7 0.00 0.00 0.00 86 1017.4
20260505074003 48 248 0.0 0.0 0.00 0.00 0.00 86 1017.4
20260505073004 48 248 0.0 0.0 0.00 0.00 0.00 86 1017.4
20260505072004 48 248 0.0 0.0 0.00 0.00 0.00 86 1017.4
20260505071003 48 248 0.0 0.0 0.00 0.00 0.00 86 1017.4
20260505070004 49 248 0.0 0.0 0.00 0.00 0.00 86 1017.3
20260505065003 49 248 0.0 0.0 0.00 0.00 0.00 85 1017.4
20260505064003 49 248 0.0 0.0 0.00 0.00 0.00 85 1017.4
20260505063004 50 249 0.0 1.7 0.00 0.00 0.00 84 1017.4
20260505062003 50 249 0.0 0.0 0.00 0.00 0.00 84 1017.5
20260505061003 51 249 0.0 0.0 0.00 0.00 0.00 84 1017.7
20260505041004 51 248 0.0 0.0 0.00 0.00 0.00 84 1017.8
20260505040005 52 248 0.0 0.0 0.00 0.00 0.00 84 1017.8
20260505035003 53 248 0.0 0.0 0.00 0.00 0.00 83 1017.8
20260505034004 53 248 0.0 0.0 0.00 0.00 0.00 83 1017.9
20260505033004 53 248 0.0 0.0 0.00 0.00 0.00 83 1017.9
20260505032004 53 248 0.0 0.0 0.00 0.00 0.00 83 1017.9
20260505031004 53 248 0.0 0.0 0.00 0.00 0.00 83 1018.0
20260505015003 57 248 0.0 0.0 0.00 0.00 0.00 78 1017.6
20260505014004 58 248 0.0 1.7 0.00 0.00 0.00 77 1017.3
20260505013004 59 248 0.9 1.7 0.00 0.00 0.00 75 1017.1